EW4048 Weather Reports


Display with metric or nautical units.
time (UTC)temp
F
wind
direction
speed
MPH
gust
MPH
rain 1hr
in
rain 24hr
in
rain mn
in
humidity
%
barometer
mb
20260906153041 89 177 0.0 0.0 0.00 0.00 0.00 15 1017.0
20260906151535 86 92 0.0 0.0 0.00 0.00 0.00 1 1017.1
20260906150032 87 93 0.0 0.0 0.00 0.00 0.00 1 1017.0
20260906144511 85 202 0.0 0.0 0.00 0.00 0.00 1 1017.2
20260906143003 84 272 0.0 0.0 0.00 0.00 0.00 1 1017.1
20260906141541 0 0.0 0.0 0.00 0.00 0.00 1017.2
20260906140037 0 0.0 0.0 0.00 0.00 0.00 1017.2
20260906134515 0 0.0 0.0 0.00 0.00 0.00 1017.1
20260906133011 0 0.0 0.0 0.00 0.00 0.00 1017.2
20260906131549 0 0.0 0.0 0.00 0.00 0.00 1017.2
20260906130045 0 0.0 0.0 0.00 0.00 0.00 1017.1
20260906124523 0 0.0 0.0 0.00 0.00 0.00 1017.2
20260906123019 0 0.0 0.0 0.00 0.00 0.00 1017.1
20260906121559 0 0.0 0.0 0.00 0.00 0.00 1017.0
20260906120111 0 0.0 0.0 0.00 0.00 0.00 1017.0
20260906114533 0 0.0 0.0 0.00 0.00 0.00 1016.9
20260906113030 0 0.0 0.0 0.00 0.00 0.00 1016.7
20260906111506 75 67 0.0 0.0 0.00 0.00 0.00 1 1016.7
20260906110003 75 67 0.0 0.0 0.00 0.00 0.00 1 1016.6
20260906104542 75 67 0.0 0.0 0.00 0.00 0.00 1 1016.4
20260906103037 75 67 0.0 0.0 0.00 0.00 0.00 1 1016.2
20260906101516 75 67 0.0 0.0 0.00 0.00 0.00 1 1016.2
20260906100012 75 67 0.0 0.0 0.00 0.00 0.00 1 1016.2
20260906094552 75 67 0.0 0.0 0.00 0.00 0.00 1 1016.2
20260906093048 75 67 0.0 0.0 0.00 0.00 0.00 1 1015.9
20260906091523 75 67 0.0 0.0 0.00 0.00 0.00 1 1015.8
20260906090020 76 67 0.0 0.0 0.00 0.00 0.00 1 1015.8
20260906084558 76 67 0.0 0.0 0.00 0.00 0.00 1 1015.7
20260906083055 76 67 0.0 0.0 0.00 0.00 0.00 1 1015.7
20260906081531 76 67 0.0 0.0 0.00 0.00 0.00 1 1015.4
20260906080031 76 67 0.0 0.0 0.00 0.00 0.00 1 1015.5
20260906074504 76 67 0.0 0.0 0.00 0.00 0.00 1 1015.7
20260906073059 76 67 0.0 0.0 0.00 0.00 0.00 1 1015.5
20260906071554 76 67 0.0 0.0 0.00 0.00 0.00 1 1015.5
20260906070033 76 67 0.0 0.0 0.00 0.00 0.00 1 1015.7
20260906064514 76 67 0.0 0.0 0.00 0.00 0.00 1 1015.8
20260906063008 77 67 0.0 0.0 0.00 0.00 0.00 1 1015.5
20260906061551 77 67 0.0 0.0 0.00 0.00 0.00 1 1015.8
20260906060042 77 67 0.0 0.0 0.00 0.00 0.00 1 1016.0
20260906054521 77 67 0.0 0.0 0.00 0.00 0.00 1 1016.0
20260906053017 77 67 0.0 0.0 0.00 0.00 0.00 1 1016.1
20260906051603 77 67 0.0 0.0 0.00 0.00 0.00 1 1016.1
20260906050052 77 67 0.0 0.0 0.00 0.00 0.00 1 1016.3
20260906044530 77 67 0.0 0.0 0.00 0.00 0.00 1 1016.3
20260906043030 78 67 0.0 0.0 0.00 0.00 0.00 1 1016.4
20260906041511 78 67 0.0 0.0 0.00 0.00 0.00 1 1016.5
20260906040009 78 67 0.0 0.0 0.00 0.00 0.00 1 1016.6
20260906034503 78 67 0.0 0.0 0.00 0.00 0.00 1 1016.8
20260906033057 78 67 0.0 0.0 0.00 0.00 0.00 1 1017.0
20260906031553 79 67 0.0 0.0 0.00 0.00 0.00 1 1017.1
20260906030049 79 67 0.0 0.0 0.00 0.00 0.00 1 1017.2
20260906024559 79 67 0.0 0.0 0.00 0.00 0.00 1 1017.0
20260906023040 79 67 0.0 0.0 0.00 0.00 0.00 1 1016.9
20260906021520 79 67 0.0 0.0 0.00 0.00 0.00 1 1016.5
20260906020014 80 67 0.0 0.0 0.00 0.00 0.00 1 1016.3
20260906014602 80 52 0.0 0.0 0.00 0.00 0.00 1 1015.9
20260906013048 80 86 0.0 0.0 0.00 0.00 0.00 1 1015.7
20260906011536 81 86 0.0 0.0 0.00 0.00 0.00 1 1015.4
20260906010022 81 86 0.0 0.0 0.00 0.00 0.00 1 1015.3
20260906004607 81 86 0.0 0.0 0.00 0.00 0.00 1 1015.3
20260906003112 81 86 0.0 0.0 0.00 0.00 0.00 1 1015.3
20260906001540 82 86 0.0 0.0 0.00 0.00 0.00 1 1015.3
20260906000036 83 86 0.0 0.0 0.00 0.00 0.00 1 1015.3
20260905234513 83 96 0.0 0.0 0.00 0.00 0.00 1 1015.3
20260905233008 84 63 0.0 0.0 0.00 0.00 0.00 1 1015.2
20260905231605 84 63 0.0 0.0 0.00 0.00 0.00 1 1015.4
20260905230042 85 63 0.0 0.0 0.00 0.00 0.00 4 1015.6
20260905224539 85 63 0.0 0.0 0.00 0.00 0.00 18 1015.5
20260905223017 86 51 0.0 0.0 0.00 0.00 0.00 16 1015.6
20260905221513 86 14 0.0 0.0 0.00 0.00 0.00 7 1015.6
20260905220051 88 349 0.0 0.0 0.00 0.00 0.00 32 1015.7
20260905214546 89 33 0.0 0.0 0.00 0.00 0.00 44 1015.6
20260905213037 89 42 0.0 0.0 0.00 0.10 0.00 39 1015.6
20260905211520 89 62 0.0 0.0 0.00 0.10 0.00 45 1015.5
20260905210100 88 306 0.0 0.0 0.00 0.10 0.00 43 1015.5
20260905204601 88 208 0.0 0.0 0.00 0.10 0.00 31 1015.8
20260905203035 87 238 0.0 0.0 0.00 0.30 0.00 21 1016.0
20260905201534 85 244 0.0 0.0 0.00 0.30 0.00 1 1016.2
20260905200008 84 270 0.0 0.0 0.00 0.30 0.00 1 1016.5
20260905194503 84 221 0.0 0.0 0.00 0.30 0.00 1 1016.7
20260905193047 84 264 0.0 0.0 0.00 0.53 0.00 1 1017.1
20260905191537 83 261 0.0 0.0 0.00 0.53 0.00 1 1017.4
20260905190016 82 208 0.0 0.0 0.00 0.53 0.00 1 1017.5
20260905184512 82 206 0.0 0.0 0.00 0.53 0.00 1 1017.8
20260905183055 83 176 0.0 0.0 0.00 0.53 0.00 1 1017.8
20260905181547 84 172 0.0 0.0 0.00 0.53 0.00 1 1018.1
20260905180024 86 143 0.0 0.0 0.00 0.53 0.00 17 1018.3
20260905174519 85 260 0.0 0.0 0.00 0.53 0.00 3 1018.5
20260905173058 85 218 0.0 0.0 0.00 0.53 0.00 25 1018.4
20260905171555 82 207 0.0 0.0 0.00 0.53 0.00 1 1018.7
20260905170034 83 224 0.0 0.0 0.00 0.53 0.00 1 1018.6
20260905164528 86 206 0.0 0.0 0.00 0.53 0.00 13 1018.7
20260905163007 86 200 0.0 0.0 0.00 0.53 0.00 7 1018.7
20260905161502 87 231 0.0 0.0 0.00 0.53 0.00 25 1018.9
20260905160047 86 104 0.0 0.0 0.00 0.53 0.00 8 1018.9
20260905154536 84 20 0.0 0.0 0.00 0.53 0.00 1 1018.8